Powrót do katalogu

COSMOS 1299 FUEL CORE

AktywnyLEO
NORAD 12808·DEBRIS·🇷🇺 Russia

Wystrzelony Aug 24, 1981 z Baikonur Cosmodrome

Loading…

Następne Przeloty (najbliższe 24 godziny)

TLE

ŚwieżeSource: Space-Track

Epoka: Sep 14, 2026, 12:00 UTC

1 12808U 81081C   26257.50036346 -.00000070  00000-0  16073-4 0  9995
2 12808  65.1183 333.2330 0007631  98.3151 273.6602 13.88661631284773

Śledź COSMOS 1299 FUEL CORE w czasie rzeczywistym z AllMySat

Download on the App Store